FW7718 Weather Reports


Display with metric or nautical units.
time (UTC)temp
F
wind
direction
speed
MPH
gust
MPH
rain 1hr
in
rain 24hr
in
rain mn
in
humidity
%
barometer
mb
20260905204949 96 78 3.0 3.0 0.00 0.00 0.00 44 1013.0
20260905204446 96 56 3.0 5.0 0.00 0.00 0.00 43 1013.2
20260905203945 97 87 6.0 7.0 0.00 0.00 0.00 42 1013.0
20260905203440 98 58 6.0 7.0 0.00 0.00 0.00 41 1013.1
20260905202936 99 64 3.0 3.0 0.00 0.00 0.00 39 1013.1
20260905202431 100 40 2.0 2.0 0.00 0.00 0.00 38 1013.2
20260905201927 99 38 3.0 3.0 0.00 0.00 0.00 38 1013.3
20260905201422 98 122 1.0 2.0 0.00 0.00 0.00 39 1013.4
20260905200921 98 198 4.0 5.0 0.00 0.00 0.00 39 1013.3
20260905200417 97 218 3.0 5.0 0.00 0.00 0.00 40 1013.3
20260905195915 96 147 3.0 3.0 0.00 0.00 0.00 42 1013.9
20260905195411 97 115 4.0 5.0 0.00 0.00 0.00 41 1013.6
20260905194906 98 118 1.0 2.0 0.00 0.00 0.00 41 1013.7
20260905194405 99 215 3.0 3.0 0.00 0.00 0.00 38 1013.9
20260905193900 100 121 0.0 0.0 0.00 0.00 0.00 38 1013.8
20260905193355 99 330 1.0 2.0 0.00 0.00 0.00 39 1014.0
20260905192850 98 118 4.0 5.0 0.00 0.00 0.00 40 1014.0
20260905192345 98 92 5.0 6.0 0.00 0.00 0.00 41 1014.2
20260905191844 99 199 5.0 7.0 0.00 0.00 0.00 40 1014.2
20260905191344 99 160 5.0 7.0 0.00 0.00 0.00 40 1014.2
20260905190843 98 96 3.0 5.0 0.00 0.00 0.00 40 1014.2
20260905190337 97 164 6.0 8.0 0.00 0.00 0.00 43 1014.5
20260905185836 97 285 4.0 5.0 0.00 0.00 0.00 41 1014.4
20260905185331 97 27 2.0 3.0 0.00 0.00 0.00 41 1014.9
20260905184830 98 76 1.0 1.0 0.00 0.00 0.00 40 1014.6
20260905184330 98 158 5.0 6.0 0.00 0.00 0.00 39 1014.9
20260905183828 97 195 3.0 5.0 0.00 0.00 0.00 41 1014.8
20260905183324 96 97 7.0 8.0 0.00 0.00 0.00 43 1014.9
20260905182823 95 209 2.0 2.0 0.00 0.00 0.00 45 1015.1
20260905182317 95 96 5.0 6.0 0.00 0.00 0.00 44 1015.4
20260905181813 95 129 1.0 1.0 0.00 0.00 0.00 45 1015.1
20260905181307 96 117 3.0 3.0 0.00 0.00 0.00 44 1015.4
20260905180806 96 108 5.0 7.0 0.00 0.00 0.00 43 1015.3
20260905180301 94 218 5.0 6.0 0.00 0.00 0.00 46 1015.5
20260905175756 95 63 2.0 2.0 0.00 0.00 0.00 45 1015.5
20260905175251 96 181 1.0 2.0 0.00 0.00 0.00 45 1015.6
20260905174746 96 173 3.0 5.0 0.00 0.00 0.00 45 1015.8
20260905174242 95 182 3.0 3.0 0.00 0.00 0.00 46 1015.8
20260905173737 94 68 5.0 6.0 0.00 0.00 0.00 48 1016.1
20260905173233 95 114 5.0 6.0 0.00 0.00 0.00 47 1015.8
20260905172727 96 86 2.0 6.0 0.00 0.00 0.00 46 1016.1
20260905172227 96 123 5.0 6.0 0.00 0.00 0.00 44 1015.9
20260905171723 96 96 8.0 9.0 0.00 0.00 0.00 45 1016.2
20260905171219 96 182 2.0 2.0 0.00 0.00 0.00 46 1015.9
20260905170715 95 82 0.0 1.0 0.00 0.00 0.00 47 1016.0
20260905170210 95 97 5.0 6.0 0.00 0.00 0.00 47 1016.0
20260905165709 94 105 1.0 1.0 0.00 0.00 0.00 50 1016.3
20260905165205 94 120 3.0 5.0 0.00 0.00 0.00 50 1016.2
20260905164700 94 336 2.0 2.0 0.00 0.00 0.00 50 1016.2
20260905164159 94 245 6.0 7.0 0.00 0.00 0.00 50 1016.2
20260905163655 94 178 6.0 8.0 0.00 0.00 0.00 52 1016.5
20260905163152 94 162 4.0 5.0 0.00 0.00 0.00 50 1016.3
20260905162648 92 142 2.0 2.0 0.00 0.00 0.00 51 1016.3
20260905162146 93 190 4.0 5.0 0.00 0.00 0.00 52 1016.3
20260905161641 94 199 5.0 6.0 0.00 0.00 0.00 51 1016.6
20260905161139 93 137 3.0 3.0 0.00 0.00 0.00 52 1016.5
20260905160638 93 102 2.0 2.0 0.00 0.00 0.00 51 1016.3
20260905160133 92 102 0.0 0.0 0.00 0.00 0.00 53 1016.6
20260905155633 92 169 3.0 3.0 0.00 0.00 0.00 53 1016.8
20260905155131 92 12 2.0 3.0 0.00 0.00 0.00 54 1016.8
20260905154626 91 166 1.0 1.0 0.00 0.00 0.00 52 1016.6
20260905154122 91 76 1.0 2.0 0.00 0.00 0.00 55 1016.7
20260905153617 90 47 3.0 3.0 0.00 0.00 0.00 55 1016.7
20260905153113 90 345 1.0 2.0 0.00 0.00 0.00 55 1016.6
20260905152608 90 301 5.0 7.0 0.00 0.00 0.00 58 1016.6
20260905152102 90 96 1.0 1.0 0.00 0.00 0.00 60 1016.5
20260905151557 89 287 3.0 3.0 0.00 0.00 0.00 60 1016.7
20260905151052 89 211 4.0 5.0 0.00 0.00 0.00 61 1016.3
20260905150548 89 233 3.0 3.0 0.00 0.00 0.00 61 1016.5
20260905150045 88 219 2.0 2.0 0.00 0.00 0.00 63 1016.5
20260905145539 88 163 1.0 2.0 0.00 0.00 0.00 63 1016.2
20260905145038 88 205 3.0 3.0 0.00 0.00 0.00 63 1016.5
20260905144533 88 217 5.0 6.0 0.00 0.00 0.00 64 1016.6
20260905144032 88 212 3.0 5.0 0.00 0.00 0.00 63 1016.3
20260905143532 88 120 1.0 1.0 0.00 0.00 0.00 63 1016.6
20260905143027 87 209 2.0 3.0 0.00 0.00 0.00 64 1016.2
20260905142525 87 218 3.0 3.0 0.00 0.00 0.00 63 1016.2
20260905142021 86 170 2.0 2.0 0.00 0.00 0.00 64 1016.0
20260905141515 86 202 3.0 3.0 0.00 0.00 0.00 65 1016.0
20260905141012 86 203 3.0 3.0 0.00 0.00 0.00 66 1016.0
20260905140507 85 169 3.0 3.0 0.00 0.00 0.00 65 1016.2
20260905140006 84 140 2.0 3.0 0.00 0.00 0.00 67 1016.2
20260905135501 84 133 1.0 1.0 0.00 0.00 0.00 68 1016.5
20260905134956 83 137 1.0 1.0 0.00 0.00 0.00 69 1016.3
20260905134455 83 182 3.0 3.0 0.00 0.00 0.00 69 1016.5
20260905133954 83 125 1.0 1.0 0.00 0.00 0.00 70 1016.2
20260905133449 82 144 1.0 1.0 0.00 0.00 0.00 70 1016.1
20260905132944 82 216 2.0 2.0 0.00 0.00 0.00 71 1016.0
20260905132439 82 216 2.0 2.0 0.00 0.00 0.00 71 1015.8
20260905131934 82 216 1.0 1.0 0.00 0.00 0.00 71 1016.0
20260905131430 82 216 2.0 2.0 0.00 0.00 0.00 72 1015.9
20260905130930 82 216 0.0 0.0 0.00 0.00 0.00 72 1015.8
20260905130424 81 216 0.0 1.0 0.00 0.00 0.00 74 1015.9
20260905125924 80 216 1.0 1.0 0.00 0.00 0.00 75 1015.7
20260905125419 79 216 0.0 0.0 0.00 0.00 0.00 77 1015.6
20260905124914 78 216 0.0 0.0 0.00 0.00 0.00 79 1015.7
20260905124411 77 216 0.0 0.0 0.00 0.00 0.00 81 1015.6
20260905123910 77 216 0.0 1.0 0.00 0.00 0.00 82 1015.6
20260905123407 76 216 1.0 1.0 0.00 0.00 0.00 83 1015.4
20260905122902 76 216 2.0 2.0 0.00 0.00 0.00 84 1015.5
20260905122401 75 216 1.0 1.0 0.00 0.00 0.00 85 1015.3
20260905121857 75 216 0.0 0.0 0.00 0.00 0.00 85 1015.3
20260905121353 75 216 1.0 1.0 0.00 0.00 0.00 85 1015.4
20260905120852 75 216 1.0 1.0 0.00 0.00 0.00 85 1015.5
20260905120346 75 216 1.0 1.0 0.00 0.00 0.00 85 1015.4
20260905115842 75 216 0.0 0.0 0.00 0.00 0.00 85 1015.3
20260905115340 75 216 2.0 2.0 0.00 0.00 0.00 84 1015.2
20260905114835 75 217 1.0 2.0 0.00 0.00 0.00 84 1015.3
20260905114334 75 217 0.0 0.0 0.00 0.00 0.00 84 1015.2
20260905113833 75 217 0.0 0.0 0.00 0.00 0.00 82 1015.4
20260905113324 75 217 0.0 0.0 0.00 0.00 0.00 81 1015.3
20260905112819 75 217 0.0 0.0 0.00 0.00 0.00 82 1015.5
20260905112313 75 217 0.0 0.0 0.00 0.00 0.00 81 1015.1
20260905111808 76 217 0.0 0.0 0.00 0.00 0.00 82 1015.3
20260905111303 76 217 0.0 0.0 0.00 0.00 0.00 82 1015.4
20260905110802 76 217 0.0 0.0 0.00 0.00 0.00 81 1015.2
20260905110256 76 217 0.0 0.0 0.00 0.00 0.00 81 1015.3
20260905105752 77 217 0.0 0.0 0.00 0.00 0.00 80 1015.2
20260905105251 77 217 0.0 1.0 0.00 0.00 0.00 80 1015.2
20260905104745 77 217 0.0 0.0 0.00 0.00 0.00 79 1015.0
20260905104241 77 217 1.0 1.0 0.00 0.00 0.00 79 1015.4
20260905103736 77 217 1.0 1.0 0.00 0.00 0.00 78 1015.3
20260905103232 77 217 1.0 1.0 0.00 0.00 0.00 78 1015.4
20260905102727 77 217 2.0 2.0 0.00 0.00 0.00 79 1015.4
20260905102224 77 211 2.0 2.0 0.00 0.00 0.00 78 1015.3
20260905101723 77 232 2.0 2.0 0.00 0.00 0.00 78 1015.2
20260905101221 77 232 3.0 3.0 0.00 0.00 0.00 79 1015.1
20260905100718 77 202 2.0 2.0 0.00 0.00 0.00 79 1015.1
20260905100218 77 202 1.0 1.0 0.00 0.00 0.00 77 1015.2
20260905095718 77 202 1.0 1.0 0.00 0.00 0.00 77 1015.1
20260905095217 77 202 1.0 1.0 0.00 0.00 0.00 76 1015.1
20260905094712 77 202 1.0 1.0 0.00 0.00 0.00 75 1015.1
20260905094207 78 202 1.0 1.0 0.00 0.00 0.00 75 1015.2
20260905093701 78 202 0.0 1.0 0.00 0.00 0.00 77 1014.9
20260905093157 78 202 1.0 1.0 0.00 0.00 0.00 77 1014.9
20260905092653 78 202 1.0 1.0 0.00 0.00 0.00 76 1015.1
20260905092148 78 201 1.0 1.0 0.00 0.00 0.00 77 1014.9
20260905091647 78 201 0.0 0.0 0.00 0.00 0.00 78 1014.9
20260905091142 78 201 0.0 0.0 0.00 0.00 0.00 78 1014.7
20260905090636 78 201 0.0 0.0 0.00 0.00 0.00 76 1015.0
20260905090132 78 201 0.0 0.0 0.00 0.00 0.00 76 1014.9
20260905085631 79 201 0.0 0.0 0.00 0.00 0.00 75 1015.0
20260905085126 79 201 0.0 1.0 0.00 0.00 0.00 75 1014.6
20260905084625 79 201 1.0 1.0 0.00 0.00 0.00 74 1014.8
20260905084120 79 201 1.0 1.0 0.00 0.00 0.00 74 1014.6
20260905083615 80 201 1.0 1.0 0.00 0.00 0.00 74 1014.6
20260905083112 80 200 2.0 2.0 0.00 0.00 0.00 73 1014.3
20260905082607 80 197 3.0 3.0 0.00 0.00 0.00 73 1014.4
20260905082102 80 204 3.0 3.0 0.00 0.00 0.00 73 1014.4
20260905081601 80 204 4.0 5.0 0.00 0.00 0.00 73 1014.5
20260905081056 80 198 4.0 5.0 0.00 0.00 0.00 74 1014.5
20260905080550 80 198 4.0 5.0 0.00 0.00 0.00 74 1014.5
20260905080046 80 187 3.0 3.0 0.00 0.00 0.00 73 1014.8
20260905075539 81 192 2.0 2.0 0.00 0.00 0.00 72 1014.5
20260905075038 81 206 2.0 2.0 0.00 0.00 0.00 71 1014.7
20260905074532 81 215 3.0 3.0 0.00 0.00 0.00 71 1014.7
20260905074029 80 223 3.0 3.0 0.00 0.00 0.00 71 1014.8
20260905073524 80 213 2.0 2.0 0.00 0.00 0.00 72 1014.9
20260905073020 80 211 1.0 2.0 0.00 0.00 0.00 72 1014.8
20260905072519 80 211 2.0 2.0 0.00 0.00 0.00 73 1014.9
20260905072014 80 205 2.0 2.0 0.00 0.00 0.00 74 1015.0
20260905071511 80 205 1.0 1.0 0.00 0.00 0.00 74 1015.0
20260905071011 80 205 1.0 1.0 0.00 0.00 0.00 73 1015.2
20260905070506 80 205 1.0 2.0 0.00 0.00 0.00 73 1015.3
20260905070001 80 205 1.0 1.0 0.00 0.00 0.00 73 1015.2
20260905065500 80 205 1.0 1.0 0.00 0.00 0.00 72 1015.2
20260905064955 81 205 1.0 2.0 0.00 0.00 0.00 72 1015.3
20260905064449 81 205 1.0 1.0 0.00 0.00 0.00 72 1015.4
20260905063944 81 205 1.0 1.0 0.00 0.00 0.00 71 1015.5
20260905063433 81 213 2.0 2.0 0.00 0.00 0.00 71 1015.3
20260905062929 81 215 2.0 2.0 0.00 0.00 0.00 70 1015.1
20260905062423 81 213 2.0 2.0 0.00 0.00 0.00 70 1015.3
20260905061918 82 207 2.0 2.0 0.00 0.00 0.00 69 1015.3
20260905061413 82 202 2.0 2.0 0.00 0.00 0.00 69 1015.4
20260905060912 82 198 2.0 2.0 0.00 0.00 0.00 69 1015.3
20260905060409 82 197 2.0 2.0 0.00 0.00 0.00 69 1015.1
20260905055908 82 186 2.0 2.0 0.00 0.00 0.00 69 1015.1
20260905055403 82 171 2.0 2.0 0.00 0.00 0.00 69 1015.1
20260905054902 82 184 3.0 3.0 0.00 0.00 0.00 68 1014.8
20260905054359 82 187 3.0 3.0 0.00 0.00 0.00 68 1014.8
20260905053858 83 194 3.0 3.0 0.00 0.00 0.00 67 1014.6
20260905053353 83 192 3.0 5.0 0.00 0.00 0.00 67 1014.8
20260905052849 83 177 2.0 2.0 0.00 0.00 0.00 67 1014.9
20260905052348 83 187 3.0 3.0 0.00 0.00 0.00 66 1014.9
20260905051848 83 184 3.0 3.0 0.00 0.00 0.00 66 1014.9
20260905051344 84 171 3.0 3.0 0.00 0.00 0.00 65 1015.0
20260905050841 84 194 3.0 5.0 0.00 0.00 0.00 65 1014.9
20260905050336 84 207 3.0 3.0 0.00 0.00 0.00 65 1014.7
20260905045831 84 186 4.0 5.0 0.00 0.00 0.00 64 1014.9
20260905045326 84 194 3.0 3.0 0.00 0.00 0.00 64 1014.5
20260905044822 84 177 2.0 3.0 0.00 0.00 0.00 63 1014.7
20260905044317 84 201 5.0 6.0 0.00 0.00 0.00 63 1014.9
20260905043815 85 165 4.0 5.0 0.00 0.00 0.00 63 1014.7
20260905043310 85 178 4.0 5.0 0.00 0.00 0.00 63 1014.9
20260905042810 85 183 3.0 3.0 0.00 0.00 0.00 62 1014.9
20260905042307 85 177 2.0 2.0 0.00 0.00 0.00 62 1014.6
20260905041800 85 195 4.0 6.0 0.00 0.00 0.00 62 1014.8
20260905041256 85 172 3.0 5.0 0.00 0.00 0.00 62 1014.6
20260905040751 85 173 2.0 2.0 0.00 0.00 0.00 62 1014.5
20260905040249 85 159 3.0 3.0 0.00 0.00 0.00 62 1014.7
20260905035744 85 188 2.0 2.0 0.00 0.00 0.00 62 1014.7
20260905035240 86 171 3.0 3.0 0.00 0.00 0.00 61 1015.0
20260905034736 86 161 2.0 2.0 0.00 0.00 0.00 61 1014.8
20260905034231 86 185 2.0 2.0 0.00 0.00 0.00 61 1014.6
20260905033730 86 172 4.0 5.0 0.00 0.00 0.00 61 1014.8
20260905033225 86 173 2.0 2.0 0.00 0.00 0.00 60 1014.8
20260905032724 86 175 3.0 5.0 0.00 0.00 0.00 60 1015.0
20260905032220 86 182 3.0 5.0 0.00 0.00 0.00 60 1014.9
20260905031715 86 137 3.0 3.0 0.00 0.00 0.00 60 1014.8
20260905031211 86 152 3.0 3.0 0.00 0.00 0.00 60 1014.6
20260905030706 86 148 2.0 2.0 0.00 0.00 0.00 59 1014.6
20260905030201 86 160 2.0 2.0 0.00 0.00 0.00 59 1014.7
20260905025656 87 175 3.0 3.0 0.00 0.00 0.00 59 1014.6
20260905025151 87 162 2.0 3.0 0.00 0.00 0.00 59 1014.5
20260905024647 87 176 3.0 5.0 0.00 0.00 0.00 58 1014.5
20260905024143 87 172 3.0 3.0 0.00 0.00 0.00 58 1014.3
20260905023638 87 148 4.0 5.0 0.00 0.00 0.00 58 1014.5
20260905023137 87 143 2.0 2.0 0.00 0.00 0.00 58 1014.4
20260905022636 87 143 1.0 2.0 0.00 0.00 0.00 58 1014.4
20260905022131 87 141 2.0 2.0 0.00 0.00 0.00 58 1014.3
20260905021626 87 146 2.0 2.0 0.00 0.00 0.00 57 1014.0
20260905021122 87 149 2.0 2.0 0.00 0.00 0.00 57 1014.1
20260905020621 87 166 3.0 3.0 0.00 0.00 0.00 57 1013.9
20260905020117 87 160 2.0 2.0 0.00 0.00 0.00 56 1013.8
20260905015615 87 153 3.0 3.0 0.00 0.00 0.00 56 1014.0
20260905015109 87 139 2.0 2.0 0.00 0.00 0.00 56 1013.8
20260905014603 88 148 2.0 2.0 0.00 0.00 0.00 55 1013.9
20260905014059 88 147 1.0 1.0 0.00 0.00 0.00 55 1013.9
20260905013555 88 147 1.0 1.0 0.00 0.00 0.00 54 1013.9
20260905013052 89 147 1.0 2.0 0.00 0.00 0.00 54 1013.6
20260905012550 89 147 1.0 1.0 0.00 0.00 0.00 53 1013.6
20260905012048 89 147 2.0 2.0 0.00 0.00 0.00 53 1013.6
20260905011543 89 147 1.0 2.0 0.00 0.00 0.00 53 1013.7
20260905011038 89 154 2.0 2.0 0.00 0.00 0.00 53 1013.6
20260905010533 90 153 2.0 2.0 0.00 0.00 0.00 52 1013.7
20260905010030 90 141 3.0 3.0 0.00 0.00 0.00 52 1013.5
20260905005525 91 162 4.0 5.0 0.00 0.00 0.00 51 1013.6
20260905005021 91 145 3.0 3.0 0.00 0.00 0.00 51 1013.4
20260905004520 91 151 3.0 5.0 0.00 0.00 0.00 50 1013.3
20260905004015 92 133 3.0 3.0 0.00 0.00 0.00 50 1013.6
20260905003512 92 144 5.0 6.0 0.00 0.00 0.00 49 1013.3
20260905003007 93 157 5.0 6.0 0.00 0.00 0.00 48 1013.3
20260905002502 93 201 5.0 8.0 0.00 0.00 0.00 48 1013.3
20260905001956 93 132 4.0 5.0 0.00 0.00 0.00 47 1013.3
20260905001450 94 171 7.0 8.0 0.00 0.00 0.00 47 1013.2
20260905000945 94 189 5.0 6.0 0.00 0.00 0.00 47 1013.2
20260905000441 94 163 6.0 7.0 0.00 0.00 0.00 46 1013.4
20260904235936 94 174 6.0 7.0 0.00 0.00 0.00 45 1013.1
20260904235432 95 185 6.0 8.0 0.00 0.00 0.00 45 1013.3
20260904234931 95 198 7.0 8.0 0.00 0.00 0.00 46 1013.2
20260904234426 95 139 6.0 7.0 0.00 0.00 0.00 46 1013.0
20260904233922 95 157 4.0 6.0 0.00 0.00 0.00 45 1013.1
20260904233417 95 190 5.0 7.0 0.00 0.00 0.00 45 1013.2
20260904232913 95 152 5.0 6.0 0.00 0.00 0.00 44 1013.0
20260904232410 95 181 5.0 6.0 0.00 0.00 0.00 44 1013.1
20260904231905 96 197 7.0 9.0 0.00 0.00 0.00 44 1013.0
20260904231400 96 189 6.0 7.0 0.00 0.00 0.00 44 1013.0
20260904230855 95 186 6.0 8.0 0.00 0.00 0.00 43 1013.0
20260904230354 96 175 5.0 7.0 0.00 0.00 0.00 43 1013.2
20260904225849 96 176 6.0 7.0 0.00 0.00 0.00 43 1013.0
20260904225347 95 138 7.0 10.0 0.00 0.00 0.00 43 1013.3
20260904224842 95 122 5.0 5.0 0.00 0.00 0.00 45 1013.4
20260904224337 96 127 7.0 8.0 0.00 0.00 0.00 44 1013.3
20260904223836 96 156 6.0 8.0 0.00 0.00 0.00 44 1013.3
20260904223331 96 159 5.0 6.0 0.00 0.00 0.00 44 1013.3
20260904222827 96 186 5.0 6.0 0.00 0.00 0.00 44 1013.0
20260904222328 97 149 8.0 10.0 0.00 0.00 0.00 42 1013.3
20260904221827 97 124 5.0 7.0 0.00 0.00 0.00 40 1013.1
20260904221327 97 130 4.0 5.0 0.00 0.00 0.00 41 1013.1
20260904220823 97 176 7.0 9.0 0.00 0.00 0.00 43 1013.4
20260904220322 97 218 7.0 9.0 0.00 0.00 0.00 42 1013.1
20260904215817 98 201 7.0 9.0 0.00 0.00 0.00 42 1013.4
20260904215313 98 97 3.0 5.0 0.00 0.00 0.00 43 1013.4
20260904214809 97 156 3.0 3.0 0.00 0.00 0.00 42 1013.6
20260904214304 97 130 4.0 7.0 0.00 0.00 0.00 43 1013.5
20260904213802 97 136 5.0 6.0 0.00 0.00 0.00 42 1013.6
20260904213258 96 186 3.0 3.0 0.00 0.00 0.00 44 1013.6
20260904212754 97 191 9.0 11.0 0.00 0.00 0.00 42 1013.7
20260904212254 97 215 9.0 9.0 0.00 0.00 0.00 41 1013.9
20260904211749 96 179 5.0 7.0 0.00 0.00 0.00 43 1013.7
20260904211243 96 162 6.0 7.0 0.00 0.00 0.00 42 1013.7
20260904210738 96 173 6.0 7.0 0.00 0.00 0.00 43 1014.0
20260904210233 96 182 5.0 6.0 0.00 0.00 0.00 44 1013.7
20260904205729 96 177 9.0 10.0 0.00 0.00 0.00 43 1013.9
20260904205225 95 160 7.0 9.0 0.00 0.00 0.00 45 1014.2